Other Public Products
Issued by NWS Grand Forks, ND

Home | Current Version | Previous Version | Graphics & Text | Print | Product List | Glossary On
Versions: 1 2 3 4 5 6 7 8 9 10 11 12 13 14 15 16 17 18 19 20 21 22 23 24 25 26 27 28 29 30 31 32 33 34 35 36 37 38 39 40 41 42 43 44 45 46 47 48 49 50
000
FPUS83 KFGF 301531
OPUFGF
PRAIRIE TO PINES WEATHER ROUNDUP
NATIONAL WEATHER SERVICE EASTERN NORTH DAKOTA/GRAND FORKS ND
1000 AM CDT TUE SEP 30 2014

 **SATELLITE DATA USED TO AUGMENT SKY COVER AT AUTOMATED STATIONS**
 *****  WEATHER ACROSS EASTERN NORTH DAKOTA  *****

CITY           SKY/WX    TMP DP  RH WIND       PRES   REMARKS
GRAND FORKS    CLOUDY    46  43  87 SE18      29.91F
GRAND FORKS AF CLOUDY    44  44  99 SE13      29.91F
GRAND CITY NWS   N/A     48 N/A N/A SE9         N/A
BUXTON           N/A     47  46  97 E9G21       N/A
DEVILS LAKE    CLOUDY    46  39  76 E20       29.79F
FARGO          PTSUNNY   50  43  77 SE18G24   29.90F
WAHPETON ARPT  CLOUDY    46  41  81 SE20G25   29.90F
$$

 *****  WEATHER ACROSS CENTRAL AND WESTERN NORTH DAKOTA  *****

CITY           SKY/WX    TMP DP  RH WIND       PRES   REMARKS
JAMESTOWN      CLOUDY    47  44  90 E16G23    29.80R
BISMARCK       CLOUDY    54  50  86 E20G25    29.69F
MINOT          FOG       49  48  97 E13       29.74F VSB 1
MINOT AFB      DRIZZLE   48  48 100 SE17      29.73F FOG
GARRISON         N/A     52  50  93 SE14      29.71F
WILLISTON      CLOUDY    54  51  90 SE5       29.68F
DICKINSON      LGT RAIN  52  51  97 E12       29.61F
HETTINGER      FOG       52  51  97 E16       29.59F VSB 1
$$

 *****  OTHER OBSERVATIONS NORTHEAST NORTH DAKOTA  *****

CITY           SKY/WX    TMP DP  RH WIND       PRES   REMARKS
WALHALLA       CLOUDY    45  45 100 SE16      29.90F
LANGDON        FOG       43  41  93 SE20G26   29.86F VSB 1
CAVALIER       CLOUDY    45  43  93 SE12G18   29.92F
GRAFTON        CLOUDY    45  45 100 SE18      29.92F
CANDO          CLOUDY    46  45  93 SE18G29   29.81F
FORT TOTTEN      N/A     46  45  95 SE8       29.95
ROLLA          CLOUDY    45  45 100 SE15G21   29.82F
RUGBY          CLOUDY    46  46 100 SE14      29.78F
 ***** THE ABOVE OBSERVATIONS ARE NON NWS ARE NOT QUALITY
        CONTROLLED AND MAY MIS-REPORT RAIN FOR SNOW...
$$

 *****  OTHER OBSERVATIONS SOUTHEAST NORTH DAKOTA *****

CITY           SKY/WX    TMP DP  RH WIND       PRES   REMARKS
COOPERSTOWN    NOT AVBL
VALLEY CITY    CLOUDY    46  46 100 SE25G36   29.82F
OAKES            N/A     50  48  93 E21G28    29.78F
GWINNER        CLOUDY    50  46  87 SE24G32   29.82F
SHEYENNE NWR     N/A     48  44  86 SE15      29.95
BUFFALO          N/A     46  44  91 E18         N/A
WYNDMERE         N/A     46  45  93 SE15        N/A
 ***** THE ABOVE OBSERVATIONS ARE NON NWS ARE NOT QUALITY
       CONTROLLED AND MAY MIS-REPORT RAIN FOR SNOW...
$$

  *****  WEATHER ACROSS NORTHERN MINNESOTA  *****

CITY           SKY/WX    TMP DP  RH WIND       PRES   REMARKS
FLAG ISLAND    CLOUDY    45  43  93 SE16G24   30.02F
WARROAD        CLOUDY    45  43  93 SE10      30.01F
ROSEAU         CLOUDY    46  41  81 SE16      29.99F
HALLOCK        PTSUNNY   48  45  87 SE14      29.93F
THF RVR FALLS  CLOUDY    46  41  81 E17       29.95F
HALSTAD          N/A     49  41  72 SE17        N/A
FOSSTON        MOSUNNY   48  43  81 E9G17     29.95F
BAUDETTE       CLOUDY    44  39  82 SE12G18   30.03F
WASKISH        CLOUDY    45  43  93 E9        30.03F
CROOKSTON      SUNNY     48  45  87 SE14      29.93F
$$
  *****  WEATHER ACROSS CENTRAL AND WEST MINNESOTA  *****

CITY           SKY/WX    TMP DP  RH WIND       PRES   REMARKS
BEMIDJI        CLOUDY    44  41  89 E14       30.00F
PARK RAPIDS    CLOUDY    42  40  92 E16       30.00F
WADENA         CLOUDY    43  39  87 SE17G24   29.98F
DETROIT LAKES  PTSUNNY   45  41  87 SE15G23   29.95S
MOORHEAD       NOT AVBL
FERGUS FALLS   SUNNY     46  39  76 SE18      29.92F
ELBOW LAKE     CLOUDY    46  42  86 E18G25    29.92F
MORRIS MN      MOSUNNY   48  43  81 SE20G28   29.90F
STAPLES        CLOUDY    43  39  87 E10G18    30.00F
WHEATON        CLOUDY    45  41  87 E15G22    29.92S
$$
  *****  WEATHER ELSEWHERE ACROSS MINNESOTA  *****

CITY           SKY/WX    TMP DP  RH WIND       PRES   REMARKS
DULUTH         CLOUDY    44  39  82 E15       30.09F
INTRNTL FALLS  CLOUDY    42  39  89 SE8       30.08F
ELY            CLOUDY    41  37  87 SE9       30.11F
CLOQUET        CLOUDY    43  39  87 E9G18     30.09S
BRAINERD       CLOUDY    43  41  93 SE9G16    30.04F
HIBBING        CLOUDY    43  38  82 E10       30.09F
ALEXANDRIA     CLOUDY    42  41  96 E16G23    29.98S
SAINT CLOUD    CLOUDY    45  40  82 E12G17    30.03F
MINNEAPOLIS    CLOUDY    44  39  82 E14       30.05F
$$

  *****  WEATHER ACROSS SOUTH DAKOTA  *****

CITY           SKY/WX    TMP DP  RH WIND       PRES   REMARKS
SIOUX FALLS    CLOUDY    57  53  86 SE16      29.83F
BROOKINGS      NOT AVBL
WATERTOWN      CLOUDY    49  46  90 SE14G24   29.81F
HURON          LGT RAIN  57  55  93 SE18G30   29.69F
SISSETON       NOT AVBL
ABERDEEN       CLOUDY    56  50  80 SE12      29.74F
MITCHELL       RAIN      57  56  96 SE22      29.73F FOG
PIERRE         PTSUNNY   65  50  58 SE26G36   29.50F
MOBRIDGE       CLOUDY    55  52  89 E21G36    29.59F
RAPID CITY     CLOUDY    54  50  86 N8        29.43S
$$

  *****  SOME WEATHER IN NEARBY STATES *****

CITY           SKY/WX    TMP DP  RH WIND       PRES   REMARKS
GLASGOW MT     CLOUDY    53  50  89 E6        29.62F
GREAT FALLS MT CLOUDY    54  44  69 SW14      29.69R
CHEYENNE WY    MOSUNNY   53  35  50 W25G37    29.86R
SCOTTSBLUFF NE CLOUDY    56  46  69 W13       29.72R
OMAHA NE       CLOUDY    67  58  72 SE10      29.87F
DES MOINES IA  CLOUDY    60  56  86 SE10G16   29.96F FOG
DAVENPORT IA   NOT AVBL
CHICAGO IL     CLOUDY    50  45  83 N10       30.05F
EAU CLAIRE WI  CLOUDY    43  37  79 E8        30.10S
LA CROSSE WI   CLOUDY    47  40  76 E9        30.09F
$$

  *****  SOME NATIONAL WEATHER *****

CITY           SKY/WX    TMP DP  RH WIND       PRES   REMARKS
LA GUARDIA NY  CLOUDY    67  58  72 NE13      29.95F
RALEIGH NC     CLOUDY    66  61  84 CALM      29.95S HAZE
ATLANTA GA     MOSUNNY   72  62  71 E7        29.98F
NEW ORLEANS LA PTSUNNY   81  71  71 E5        29.91R
OKLAHOMA CITY  PTSUNNY   76  64  66 S13       29.91S
ALBUQUERQUE NM SUNNY     54  37  52 CALM      30.06S
SALT LAKE CITY PTSUNNY   55  48  77 CALM      29.98R
LOS ANGELES CA MOSUNNY   66  57  72 CALM      29.87R
BOISE ID       CLOUDY    54  52  94 W8        29.96R
SEATTLE WA     CLOUDY    55  52  88 S5        30.07R
$$

*** WEATHER ACROSS MANITOBA...SASKATCHEWAN AND ONTARIO ***
                ***ONTARIO***

CITY           SKY/WX    TMP DP  RH WIND       PRES   REMARKS
GERALDTON      NOT AVBL
THUNDER BAY    MOSUNNY   45  37  76 E3        30.18F
SIOUX LOOKOUT  NOT AVBL
TORONTO        PTSUNNY   66  59  77 VRB2      29.89S
BIG TROUT LK   CLOUDY    43  37  81 SW10      30.08F
PICKLE LAKE    DRIZZLE   37  36  93 W9        30.12F FOG
DRYDEN         CLOUDY    41  39  93 SE8       30.08F
KENORA         CLOUDY    43  41  93 S14       30.04F
$$
                *** MANITOBA***

CITY           SKY/WX    TMP DP  RH WIND       PRES   REMARKS
BRANDON        NOT AVBL
DAUPHIN        PTSUNNY   48  46  93 SE15      29.81F
ISLAND LAKE    CLOUDY    46  41  81 SE6       29.98F
PILOT MOUND      N/A     45  43  93 SE20        N/A
THE PAS        LGT RAIN  46  45  93 SE12      29.76S
THOMPSON       CLOUDY    45  45 100 SE6       29.85F
WINNIPEG       CLOUDY    45  43  93 SE17      29.95F
LYNN LAKE      CLOUDY    43  39  87 S12G20    29.72S
CHURCHILL      CLOUDY    39  37  93 SE14G21   29.96F
GILLAM         CLOUDY    45  43  93 SE6       29.93S
$$
                ***SASKATCHEWAN***

CITY           SKY/WX    TMP DP  RH WIND       PRES   REMARKS
ESTEVAN        FOG       50  50 100 SE10      29.72F VSB 1
KINDERSLEY     NOT AVBL
LLOYDMINSTER   NOT AVBL
PRINCE ALBERT  LGT RAIN  52  48  87 S9        29.61F
REGINA         LGT RAIN  52  52 100 SE14G21   29.66F FOG



USA.gov is the U.S. government's official web portal to all federal, state and local government web resources and services.